Regional Weather Roundup
Issued by NWS

Home | Current Version | Previous Version | Text Only | Print | Product List | Glossary Off
Versions: 1 2 3 4 5 6 7 8 9 10 11 12 13 14 15 16 17 18 19 20 21 22 23 24 25 26 27 28 29 30 31 32 33 34 35 36 37 38 39 40 41 42 43 44 45 46 47 48 49 50

000
ASUS43 KDMX 211607
RWRIA

WEATHER ROUNDUP FOR IOWA
NATIONAL WEATHER SERVICE DES MOINES IA
1000 AM CST SUN DEC 21 2014

NOTE: "FAIR" INDICATES FEW OR NO CLOUDS BELOW 12,000 FEET WITH NO
SIGNIFICANT WEATHER AND/OR OBSTRUCTIONS TO VISIBILITY.

* - THESE STATIONS ARE NOT NWS STATIONS...THUS NOT UNDER NWS
QUALITY CONTROL.  THEY ALSO DO NOT REPORT WEATHER SUCH
AS PRECIPITATION OR FOG.

IAZ001>003-012>014-020>022-031>034-043>046-211700-
   NORTHWEST IOWA

CITY           SKY/WX    TMP DP  RH WIND       PRES   REMARKS
CARROLL *      CLOUDY    37  37 100 S18G26    29.86S FOG     WCI  27
CHEROKEE *     CLOUDY    37  37 100 S14       29.80F FOG     WCI  29
DENISON *      CLOUDY    37  37 100 S21G28    29.83S FOG     WCI  27
LE MARS *      CLOUDY    37  37 100 S18G24    29.78R WCI  27
ORANGE CITY *  FOG       36  36 100 S14       29.77S VSB 1/4 WCI  27
SHELDON *      FOG       34  34 100 S13       29.77F VSB 1/2 WCI  25
SIOUX CITY     CLOUDY    38  36  92 S13       29.81S WCI  30
SPENCER        FOG       36  35  96 S14       29.81S VSB 1   WCI  27
STORM LAKE *   FOG       36  36 100 S15G21    29.82R VSB 0   WCI  26
$$

IAZ055>058-069>071-079>083-090>094-211700-
   SOUTHWEST IOWA

CITY           SKY/WX    TMP DP  RH WIND       PRES   REMARKS
ATLANTIC *     CLOUDY    39  37  93 S17G26    29.89S WCI  30
AUDUBON *      SUNNY     37  34  87 S17       29.88S FOG     WCI  28
CLARINDA *     CLOUDY    39  37  93 S16G24    29.94F WCI  30
COUNCIL BLFS * CLOUDY    37  37 100 S14G23    29.86R FOG     WCI  29
CRESTON *      CLOUDY    37  37 100 S18G24    29.93F FOG     WCI  27
HARLAN  *      CLOUDY    37  37 100 S17       29.90S FOG     WCI  28
LAMONI         CLOUDY    37  35  92 S16G22    29.98F WCI  28
RED OAK *      CLOUDY    39  37  93 S16       29.91S WCI  30
SHENANDOAH *   CLOUDY    39  37  93 S16G23    29.92S FOG     WCI  30
$$

IAZ047>049-059>061-072>074-084-211700-
   CENTRAL IOWA

CITY           SKY/WX    TMP DP  RH WIND       PRES   REMARKS
AMES           CLOUDY    38  33  82 S17       29.94S WCI  28
ANKENY *       CLOUDY    39  34  81 S16G24    29.96R WCI  30
CHARITON *     CLOUDY    39  36  87 S17       29.98F WCI  30
DES MOINES     CLOUDY    40  33  76 MISG      29.96S
GRINNELL*      CLOUDY    37  36  93 S15       29.99S FOG     WCI  28
KNOXVILLE *    CLOUDY    39  36  87 S13G23    29.97S WCI  32
MARSHALLTOWN   CLOUDY    37  35  92 S14       29.96S FOG     WCI  28
PELLA *        CLOUDY    39  36  87 S12G21    30.00S FOG     WCI  32
PERRY *        CLOUDY    37  36  93 S22       29.90F FOG     WCI  27
$$

IAZ004>006-015-016-023>025-035-036-211700-
   NORTH CENTRAL IOWA

CITY           SKY/WX    TMP DP  RH WIND       PRES   REMARKS
ALGONA *       FOG       36  36 100 S21       29.84F VSB 1/2 WCI  24
CLARION *      FOG       36  36 100 S20G26    29.87F VSB 1   WCI  25
ESTHERVILLE    CLOUDY    34  34 100 S16       29.81S FOG     WCI  24
FORT DODGE *   CLOUDY    36  34  93 S16G23    29.87F VSB 1   WCI  26
MASON CITY     CLOUDY    35  35 100 S21G28    29.90F FOG     WCI  24
FOREST CITY *  FOG       36  34  93 S15G22    29.87F VSB 1   WCI  26
IOWA FALLS *   CLOUDY    36  34  93 S17G24    29.93F FOG     WCI  25
$$

IAZ007>011-017>019-026>030-037>042-050>054-066-211700-
   NORTHEAST IOWA

CITY           SKY/WX    TMP DP  RH WIND       PRES   REMARKS
CEDAR RAPIDS   CLOUDY    38  35  89 S14       30.02F FOG     WCI  30
CHARLES CITY * CLOUDY    36  36 100 S18G24    29.94S FOG     WCI  25
CLINTON *      CLOUDY    36  32  87 S12       30.13S WCI  27
DECORAH *      CLOUDY    36  36 100 S15G24    29.95F FOG     WCI  26
DUBUQUE        CLOUDY    34  33  96 S14       30.06S FOG     WCI  25
MONTICELLO *   CLOUDY    37  37 100 S13       30.05F FOG     WCI  29
OELWEIN *      CLOUDY    36  36 100 S17G24    29.99S FOG     WCI  25
WATERLOO       CLOUDY    37  35  92 S18       29.97F WCI  27
$$

IAZ064-065-067-068-078-211700-
   EAST CENTRAL IOWA

CITY           SKY/WX    TMP DP  RH WIND       PRES   REMARKS
DAVENPORT      CLOUDY    38  32  79 S16       30.10F WCI  29
IOWA CITY      CLOUDY    39  35  86 S12       30.07F WCI  32
MT. PLEASANT * CLOUDY    37  36  93 S12       30.09S WCI  30
MUSCATINE *    CLOUDY    39  34  81 S12       30.10S WCI  32
QUAD CITIES    CLOUDY    38  33  82 S12       30.11S WCI  30
$$

IAZ062-063-075>077-085>089-095>099-211700-
   SOUTHEAST IOWA

CITY           SKY/WX    TMP DP  RH WIND       PRES   REMARKS
BURLINGTON     LGT RAIN  39  35  86 S12       30.09F WCI  32
FAIRFIELD *    CLOUDY    39  36  87 S14G23    30.05F WCI  31
FORT MADISON * CLOUDY    39  37  93 S13G20    30.10S WCI  32
KEOKUK *       CLOUDY    41  36  81 S8        30.09F
OSKALOOSA *    CLOUDY    39  36  87 S17       30.02F FOG     WCI  30
CENTERVILLE *  CLOUDY    39  39 100 S12       30.03S WCI  32
OTTUMWA        CLOUDY    39  34  82 S16       30.02F WCI  30
WASHINGTON *   CLOUDY    39  39 100 S13       30.06F WCI  32
$$

ABBREVIATIONS USED IN REMARKS
   TC - TEMPERATURES IN CELSIUS
  WCI - WIND CHILL INDEX
   HX - HEAT INDEX
  VSB - VISIBILITY
$$




USA.gov is the U.S. government's official web portal to all federal, state and local government web resources and services.